www.pogodaiklimat.ru

Погода и климат >> Архив погоды >> Таиланд >> Suphan Buri


ПОГОДА в Suphan Buri

  • Прогноз погоды в Suphan Buri
  • Монитор погоды в Suphan Buri
  • Климат города

АРХИВ ПОГОДЫ в Suphan Buri

Время (UTC), дата Ветер
(напр.,м/с)
 
Видим.   Явления Облачность Т
(С)
Тd
(С)
f
(%)
Тe
(С)
Тes
(С)
Комфортность P
(гПа)
Po
(гПа)
Тmin
(С)
Tmax
(С)
R
(мм)
R24
(мм)
S
(см)
06 22.04 штиль 0 10 км 3/0
[Cs]
+36.5 +20.7 40 +43 +70 опасность
перегрева
1008.1 1007.1
09 22.04 штиль 0 10 км 3/0
[Cs]
+37.6 +20.5 37 +44 +54 опасность
перегрева
1005.1 1004.2
12 22.04 штиль 0 8000 м мгла 3/0
[Cs]
+34.0 +20.8 46 +41 +41 опасность
перегрева
1005.4 1004.4 +38.5
15 22.04 Ю 1 7000 м мгла 3/0
[Cs]
+30.2 +22.6 64 +40 +40 очень
душно
1008.0 1007.0
18 22.04 штиль 0 6000 м дымка 3/0
[Cs]
+27.8 +24.9 84 +40 +40 очень
душно
1007.7 1006.7
21 22.04 штиль 0 4000 м дымка 3/0
[Cs]
+27.2 +24.6 86 +39 +39 очень
душно
1007.2 1006.2
00 23.04 штиль 0 3000 м дымка 3/0
[Cs]
+27.4 +24.2 83 +38 +40 очень
душно
1008.8 1007.8 +26.4
03 23.04 С 3 7000 м мгла 3/0
[Cs]
+32.5 +23.9 61 +44 +56 опасность
перегрева
1010.8 1009.8
06 23.04 штиль 0 10 км 3/0
[Cs]
+37.6 +22.3 41 +46 +73 опасность
перегрева
1008.0 1007.1
09 23.04 штиль 0 10 км 3/0
[Cs]
+38.0 +22.4 41 +47 +57 опасность
перегрева
1005.1 1004.2
12 23.04 штиль 0 10 км 3/0
[Cs]
+34.4 +23.5 53 +45 +45 опасность
перегрева
1005.6 1004.6 +39.2
15 23.04 штиль 0 10 км 3/0
[Cs]
+30.6 +23.2 65 +41 +41 опасность
перегрева
1008.7 1007.7
18 23.04 ЮВ 2 8000 м дымка 3/0
[Cs]
+28.9 +24.9 79 +41 +41 опасность
перегрева
1007.3 1006.3
21 23.04 Ю 1 6000 м дымка 3/0
[Cs]
+27.6 +25.3 87 +40 +40 очень
душно
1007.1 1006.1
00 24.04 штиль 0 6000 м дымка 3/0
[Cs]
+27.6 +25.6 89 +41 +42 опасность
перегрева
1009.6 1008.5 +27.2
03 24.04 штиль 0 7000 м мгла 3/0
[Cs]
+33.4 +24.3 59 +46 +65 опасность
перегрева
1011.4 1010.4
06 24.04 ЮЗ 1 8000 м мгла 3/0
[Cs]
+37.7 +23.5 44 +48 +72 опасность
перегрева
1008.8 1007.8
09 24.04 штиль 0 8000 м мгла 3/0
[Cs]
+38.0 +23.8 44 +49 +59 опасность
перегрева
1005.2 1004.3
12 24.04 штиль 0 7000 м мгла 6/3 600 м
[Sc Ac trans Cs]
+34.0 +23.5 54 +45 +45 опасность
перегрева
1005.0 1004.1 +38.7
15 24.04 Ю 1 6000 м дымка 3/0
[Cs]
+30.5 +25.3 74 +44 +44 опасность
перегрева
1009.1 1008.1
18 24.04 штиль 0 6000 м дымка 3/0
[Cs]
+29.0 +26.2 85 +44 +44 опасность
перегрева
1008.2 1007.2
21 24.04 штиль 0 6000 м дымка 3/0
[Cs]
+28.0 +25.6 87 +41 +41 опасность
перегрева
1008.0 1007.0
00 25.04 штиль 0 5000 м дымка 3/0
[Cs]
+27.5 +24.2 82 +38 +40 очень
душно
1009.7 1008.7 +27.0
03 25.04 СЗ 2 8000 м мгла 8/0
[Ac trans Cs]
+34.5 +22.1 49 +43 +53 опасность
перегрева
1011.1 1010.1
06 25.04 штиль 0 8000 м мгла 8/0
[Ac trans Cs]
+36.5 +21.1 41 +44 +61 опасность
перегрева
1008.6 1007.6
09 25.04 ЮВ 1 8000 м мгла 3/0
[Ac trans Cs]
+38.6 +21.4 37 +46 +53 опасность
перегрева
1005.0 1004.0
12 25.04 штиль 0 6000 м мгла 10/4 600 м
[Sc Ac und Cs]
+37.4 +22.7 43 +47 +47 опасность
перегрева
1005.6 1004.6 +39.0
15 25.04 штиль 0 6000 м мгла 8/3 600 м
[Sc Ac und Cs]
+31.3 +23.7 64 +42 +42 опасность
перегрева
1008.8 1007.8
18 25.04 штиль 0 5000 м дымка 3/0
[Cs]
+29.0 +22.9 70 +39 +39 очень
душно
1007.8 1006.8
21 25.04 штиль 0 5000 м дымка 3/0
[Cs]
+27.5 +23.9 81 +38 +38 очень
душно
1007.1 1006.1
00 26.04 штиль 0 6000 м дымка 3/0
[Cs]
+27.4 +24.5 84 +39 +40 очень
душно
1009.0 1008.0 +26.7
03 26.04 штиль 0 8000 м мгла 3/0
[Cs]
+33.5 +22.6 53 +43 +63 опасность
перегрева
1010.4 1009.4
06 26.04 штиль 0 8000 м мгла 3/0
[Cs]
+37.2 +21.8 41 +45 +72 опасность
перегрева
1007.9 1007.0
09 26.04 штиль 0 8000 м мгла 3/0
[Cs]
+37.2 +21.8 41 +45 +55 опасность
перегрева
1005.1 1004.1
12 26.04 штиль 0 8000 м мгла 3/0
[Cs]
+34.5 +23.3 52 +45 +45 опасность
перегрева
1006.4 1005.5 +38.5
15 26.04 штиль 0 7000 м дымка 4/0
[Ac trans Cs]
+31.2 +24.5 68 +44 +44 опасность
перегрева
1009.2 1008.2
18 26.04 штиль 0 6000 м дымка 3/0
[Cs]
+29.6 +26.1 82 +45 +45 опасность
перегрева
1008.4 1007.4
21 26.04 штиль 0 5000 м дымка 3/0
[Cs]
+28.7 +25.0 80 +41 +41 опасность
перегрева
1007.4 1006.4
00 27.04 штиль 0 5000 м дымка 5/0
[Ac trans Cs]
+28.5 +25.7 85 +42 +44 опасность
перегрева
1009.2 1008.2 +28.0
03 27.04 штиль 0 7000 м мгла 3/0
[Cs]
+34.2 +24.9 58 +47 +67 опасность
перегрева
1010.6 1009.6
06 27.04 штиль 0 8000 м мгла 3/1 600 м
[Cu hum Cs]
+36.8 +24.4 49 +49 +74 опасность
перегрева
1008.3 1007.4
09 27.04 штиль 0 8000 м мгла 3/0
[Cs]
+37.9 +24.2 46 +50 +60 опасность
перегрева
1005.0 1004.0
12 27.04 штиль 0 7000 м мгла 3/0
[Ac lent Cs]
+34.5 +24.6 56 +47 +47 опасность
перегрева
1006.3 1005.3 +38.8
15 27.04 Ю 1 6000 м дымка 3/0
[Cs]
+31.1 +26.1 75 +47 +47 опасность
перегрева
1009.9 1008.9
18 27.04 штиль 0 6000 м дымка 3/0
[Cs]
+29.5 +26.0 81 +44 +44 опасность
перегрева
1009.0 1008.0
21 27.04 штиль 0 5000 м дымка 3/0
[Cs]
+28.2 +25.1 83 +41 +41 опасность
перегрева
1008.2 1007.2
00 28.04 ЮЗ 4 6000 м дымка 4/0
[Cs]
+27.9 +24.6 82 +39 +40 очень
душно
1009.2 1008.2 +27.4
03 28.04 Ю 2 8000 м мгла 6/1 600 м
[Cu med, cong Cs]
+33.4 +24.3 59 +46 +58 опасность
перегрева
1010.6 1009.6
06 28.04 В 3 12 км пыльная буря 8/3 600 м
[Cu med, cong Cs]
+36.5 +22.8 45 +46 +57 опасность
перегрева
1007.6 1006.6
09 28.04 ЮВ 1 10 км 8/3 600 м
[Cu med, cong Cs]
+33.1 +23.6 58 +44 +50 опасность
перегрева
1006.3 1005.3
12 28.04 В 4 10 км 9/6 600 м
[Cu Sc Ac As Cs]
+29.0 +23.8 74 +40 +40 очень
душно
1008.4 1007.3 +38.9
15 28.04 штиль 0 8000 м дымка 8/3 600 м
[Cu med, cong Ac trans Cs]
+28.4 +24.1 78 +40 +40 очень
душно
1011.6 1010.5
18 28.04 СВ 4 7000 м в посл. час дождь 8/3 600 м
[Cu med, cong Ac und Cs]
+26.5 +24.3 88 +37 +37 очень
душно
1011.3 1010.2 0.0
21 28.04 штиль 0 4000 м дымка {дождь} 10/4 600 м
[Sc Ac und Cs]
+25.4 +24.2 93 +35 +35 очень
душно
1010.8 1009.8 0.3
00 29.04 СВ 2 6000 м дымка {дождь} 10/4 600 м
[Sc Ac und Cs]
+25.8 +23.9 89 +35 +36 очень
душно
1011.8 1010.7 +25.2 0.3
03 29.04 штиль 0 8000 м дымка 10/5 600 м
[Sc Ac und Cs]
+28.8 +24.6 78 +41 +46 опасность
перегрева
1013.9 1012.9

 

Местоположение метеостанции Suphan Buri (Таиланд): широта 14.47 долгота 100.13 высота над уровнем моря 8 м.

В архиве по умолчанию представлена погода в Suphan Buri за последнюю неделю. Архивные данные за месяц целиком и за предыдущие месяцы, начиная с января 2011 года, Вы можете получить, выбрав интересующий диапазон дат из раскрывающегося списка и нажав кнопку "Ввод!".

Внимание! Время в таблицах - всемирное. Для получения местного времени необходимо прибавить поправку, которая в Suphan Buri равна 7 ч.

Смотрите также архив погоды в соседних городах и на ближайших метеорологических станциях:

Погода в U Thong Agromet (Таиланд) (34 км)
Погода в Nakhonpathom (Таиланд) (53 км)
Погода в Lop Buri (Таиланд) (63 км)
Погода в Ayutthaya (Таиланд) (64 км)
Погода в Pathumthani (Таиланд) (67 км)
Погода в Chainat Agromet (Таиланд) (76 км)
Погода в Don Muang (Таиланд) (79 км)
Погода в Kanchanaburi (Таиланд) (82 км)
Погода в Saraburi (Таиланд) (85 км)
Погода в Bangkok (Таиланд) (94 км)

Пояснения к столбцам:

Ветер - указаны скорость ветра в м/с - средняя за 10 мин, порывы в срок и между сроками (в фигурных скобках) и направление, откуда дует ветер: С - северный, СВ - северо-восточный, В - восточный, ЮВ - юго-восточный, Ю - южный, ЮЗ - юго-западный, З - западный, СЗ - северо-западный.
Видимость - горизонтальная дальность видимости в метрах или километрах. При видимости от 1 до 10 км при отсутствии осадков обычно наблюдается дымка, при ухудшении видимости до 1 км и менее - туман. В сухую погоду видимость может ухудшаться дымом, пылью или мглою.
Явления - указаны атмосферные явления, наблюдавшиеся в срок или в последний час перед сроком; фигурными скобками обозначены явления, наблюдавшиеся между сроками (за 1-3 часа до срока); квадратными скобками обозначены град или гололедные отложения с указанием их диаметра в мм.
Облачность - указаны через наклонную черту общая и нижняя облачность в баллах и высота нижней границы облаков в метрах; квадратными скобками обозначены формы облаков: Ci - перистые, Cs - перисто-слоистые, Cc - перисто-кучевые, Ac - высококучевые, As - высокослоистые, Sc - слоисто-кучевые, Ns - слоисто-дождевые, Cu - кучевые, Cb - кучево-дождевые. Подробнее классификацию облаков см. в Атласе облаков (PDF).
T - Температура воздуха - температура, измеренная на высоте 2 м над землей.
Td - Температура точки росы - температура, при понижении до которой содержащийся в воздухе водяной пар достигнет насыщения.
f - Относительная влажность воздуха - влажноcть воздуха, измеренная на высоте 2 м над землей.
Te - Эффективная температура - температура, которую ощущает одетый по сезону человек в тени. Характеристика душности погоды. При расчете учитывается влияние влажности воздуха и скорости ветра на теплоощущения человека.
Tes - Эффективная температура на солнце - температура, которую ощущает человек, с поправкой на солнечный нагрев. Характеристика знойности погоды. Зависит от высоты солнца над горизонтом, облачности и скорости ветра. Ночью, в пасмурную погоду, а также при ветре 12 м/с и более поправка равна нулю.
P - Атмосферное давление - приведенное к уровню моря атмосферное давление.
Po - Атмосферное давление - измеренное на уровне метеостанции атмосферное давление.
Tmin - Минимальная температура - минимум температуры воздуха на высоте 2 м над землей.
Tmax - Максимальная температура - максимум температуры воздуха на высоте 2 м над землей.
R - Количество осадков - Количество выпавших осадков за период времени, мм. При наведении курсора мыши на число - период времени, за который выпало указанное количество осадков.
R24 - Количество осадков - Количество выпавших осадков за 24 часа, мм.
S - Снежный покров - Высота снежного покрова, см. При наведении курсора мыши на число - состояние снежного покрова и степень покрытия местности в баллах.